Flag for Kazakhstan Weather past 2 weeks in Karaganda, Kazakhstan

Now
48 °F

Passing clouds.


Feels Like: 40 °F
Forecast: 39 / 51 °F
Wind: 24 mph from Southwest

Location: Karaganda

Current Time: Apr 27, 2015 at 1:27:21 AM

Latest Report: Apr 27, 2015 at 1:00 AM


Visibility: N/A

Pressure: 29.62 "Hg

Humidity: 87%

Dew point: 45 °F

Location of KaragandaLocation

Historic Weather in Karaganda — Graph

°F

Karaganda temperature yesterday

Maximum temperature yesterday: 54 °F (at 11:30 AM)
Minimum temperature yesterday: 46 °F (at 10:00 PM)
Average temperature yesterday: 50 °F

Past Weeks' High & Low Weather Summary

 TemperatureHumidityPressure
High81 °F (Apr 23, 12:30 PM)100% (Apr 12, 5:30 PM)30.24 "Hg (Apr 12, 5:30 PM)
Low27 °F (Apr 14, 5:00 AM)24% (Apr 20, 5:00 PM)29.53 "Hg (Apr 26, 4:30 PM)
Average49 °F70%29.92 "Hg
* Reported Apr 11 11:00 PM — Apr 26 11:30 PM, Karaganda, Weather by CustomWeather, © 2015

Note: Actual official high and low records may vary slightly from our data, if they occured in-between our weather recording intervals... More about our weather records

Advertising

Karaganda weather history for previous 24 hours

 ConditionsComfort  
Time TempWeatherWind HumidityBarometerVisibility
11:30 PM
Sun, Apr 26
46 °FClear.15 mph87%29.59 "Hg10 mi
11:00 PM46 °FClear.8 mph93%29.59 "Hg10 mi
10:30 PM46 °FClear.8 mph93%29.59 "Hg10 mi
10:00 PM46 °FClear.6 mph93%29.56 "Hg10 mi
9:30 PM48 °FPassing clouds.6 mph94%29.56 "HgN/A
9:00 PM48 °FMostly cloudy.3 mph94%29.56 "HgN/A
8:30 PM48 °FMostly cloudy.3 mph94%29.56 "HgN/A
8:00 PM48 °FSprinkles. Mostly cloudy.10 mph94%29.56 "HgN/A
7:30 PM50 °FSprinkles. Mostly cloudy.13 mph94%29.53 "Hg5 mi
7:00 PM50 °FRain showers. Mostly cloudy.10 mph94%29.53 "Hg1 mi
6:30 PM50 °FRain. Mostly cloudy.6 mph94%29.53 "Hg2 mi
6:00 PM52 °FRain. Overcast.1 mph94%29.53 "Hg3 mi
5:30 PM52 °FLight rain. Mostly cloudy.1 mph88%29.53 "HgN/A
5:00 PM54 °FMostly cloudy.3 mph82%29.53 "HgN/A
4:30 PM52 °FMostly cloudy.1 mph88%29.53 "HgN/A
4:00 PM52 °FMostly cloudy.1 mph88%29.56 "HgN/A
3:30 PM52 °FFog.3 mph88%29.56 "Hg3 mi
3:00 PM52 °FLight rain. Fog.3 mph88%29.59 "Hg3 mi
2:30 PM52 °FSprinkles. Overcast.6 mph88%29.59 "HgN/A
2:00 PM54 °FSprinkles. Overcast.3 mph77%29.59 "HgN/A
1:30 PM54 °FOvercast.3 mph77%29.59 "HgN/A
1:00 PM54 °FOvercast.6 mph72%29.62 "HgN/A
12:30 PM54 °FOvercast.3 mph72%29.62 "HgN/A
12:00 PM54 °FOvercast.3 mph67%29.62 "HgN/A
11:30 AM54 °FOvercast.1 mph67%29.62 "HgN/A
11:00 AM52 °FOvercast.1 mph72%29.65 "HgN/A
10:30 AM52 °FOvercast.1 mph72%29.65 "HgN/A
10:00 AM52 °FOvercast.8 mph72%29.59 "HgN/A
9:30 AM50 °FMore clouds than sun.8 mph82%29.56 "HgN/A
9:00 AM48 °FOvercast.3 mph87%29.59 "HgN/A
8:30 AM48 °FSprinkles. Overcast.3 mph87%29.62 "Hg5 mi
8:00 AM48 °FLight rain. Overcast.No wind87%29.65 "Hg6 mi
7:30 AM48 °FOvercast.1 mph94%29.65 "HgN/A
7:00 AM48 °FOvercast.1 mph94%29.65 "HgN/A
6:30 AM48 °FOvercast.1 mph94%29.62 "HgN/A
6:00 AM48 °FOvercast.1 mph94%29.62 "HgN/A
5:30 AM48 °FSprinkles. Fog.3 mph94%29.62 "Hg3 mi
5:00 AM48 °FSprinkles. Overcast.1 mph94%29.65 "Hg4 mi
4:00 AM48 °FLight rain. Overcast.1 mph94%29.68 "HgN/A
3:00 AM48 °FSprinkles. Mostly cloudy.3 mph94%29.71 "Hg5 mi
2:30 AM48 °FSprinkles. Mostly cloudy.8 mph94%29.71 "HgN/A
2:00 AM48 °FPassing clouds.3 mph94%29.71 "HgN/A
1:30 AM48 °FClear.1 mph94%29.71 "Hg10 mi
1:00 AM48 °FPassing clouds.3 mph94%29.71 "HgN/A
Weather by CustomWeather, © 2015

See weather overviewHow to use our weather pages